CCM26D LIMC-LFKF

Flight info

Callsign CCM26D
Flight time 0h 54m
Altitude 37000
Route ROBAS DCT LUKIM DCT TORTU
Aircraft A20N/M-SDE2E3FGHIRWXY/LB1

Departure

Time 2026-05-06 14:10
Airport Milan Malpensa International Airport (LIMC)

Arrival

Time 2026-05-06 15:04
Airport Figari Sud-Corse Airport (LFKF)
Time Latitude Longitude Altitude Speed Heading
2026-05-06 13:40 45.62223 8.71789 727 ft 0 kts 168°
2026-05-06 13:58 45.62234 8.71787 727 ft 2 kts 172°
2026-05-06 13:58 45.62249 8.71782 727 ft 2 kts 167°
2026-05-06 13:59 45.62264 8.71778 728 ft 2 kts 168°
2026-05-06 13:59 45.62274 8.71775 728 ft 0 kts 168°
2026-05-06 13:59 45.62287 8.71769 728 ft 2 kts 148°
2026-05-06 13:59 45.62299 8.71756 728 ft 2 kts 131°
2026-05-06 14:00 45.62307 8.71738 728 ft 2 kts 111°
2026-05-06 14:00 45.62310 8.71717 729 ft 2 kts 93°
2026-05-06 14:00 45.62310 8.71703 729 ft 0 kts 80°
2026-05-06 14:00 45.62309 8.71694 729 ft 0 kts 78°
2026-05-06 14:02 45.62309 8.71695 729 ft 0 kts 78°
2026-05-06 14:03 45.62309 8.71700 729 ft 1 kts 78°
2026-05-06 14:03 45.62314 8.71732 728 ft 5 kts 78°
2026-05-06 14:03 45.62325 8.71811 728 ft 10 kts 78°
2026-05-06 14:03 45.62343 8.71939 728 ft 15 kts 78°
2026-05-06 14:04 45.62366 8.72108 726 ft 17 kts 79°
2026-05-06 14:04 45.62318 8.72235 725 ft 16 kts 166°
2026-05-06 14:04 45.62194 8.72270 722 ft 19 kts 169°
2026-05-06 14:04 45.62054 8.72308 719 ft 21 kts 168°
2026-05-06 14:05 45.61905 8.72351 715 ft 22 kts 169°
2026-05-06 14:05 45.61748 8.72394 712 ft 23 kts 169°
2026-05-06 14:05 45.61582 8.72439 707 ft 24 kts 170°
2026-05-06 14:05 45.61412 8.72484 704 ft 25 kts 169°
2026-05-06 14:06 45.61237 8.72533 700 ft 26 kts 169°
2026-05-06 14:06 45.61099 8.72589 697 ft 18 kts 135°
2026-05-06 14:06 45.61092 8.72768 696 ft 19 kts 78°
2026-05-06 14:06 45.61119 8.72957 696 ft 19 kts 78°
2026-05-06 14:07 45.61193 8.73105 696 ft 18 kts 36°
2026-05-06 14:07 45.61299 8.73207 697 ft 17 kts 33°
2026-05-06 14:07 45.61409 8.73264 698 ft 17 kts 356°
2026-05-06 14:07 45.61533 8.73233 701 ft 18 kts 349°
2026-05-06 14:08 45.61624 8.73304 702 ft 17 kts 77°
2026-05-06 14:08 45.61617 8.73470 701 ft 17 kts 119°
2026-05-06 14:08 45.61597 8.73646 699 ft 18 kts 77°
2026-05-06 14:08 45.61693 8.73719 700 ft 17 kts 351°
2026-05-06 14:09 45.61805 8.73690 702 ft 18 kts 349°
2026-05-06 14:09 45.62189 8.73583 711 ft 94 kts 349°
2026-05-06 14:09 45.63063 8.73336 732 ft 157 kts 349°
2026-05-06 14:09 45.64239 8.72994 1084 ft 181 kts 349°
2026-05-06 14:10 45.65453 8.72642 1869 ft 182 kts 348°
2026-05-06 14:10 45.66684 8.72368 2665 ft 181 kts 360°
2026-05-06 14:10 45.67890 8.72885 3152 ft 191 kts 39°
2026-05-06 14:10 45.68720 8.74445 3587 ft 206 kts 71°
2026-05-06 14:11 45.68858 8.76510 4001 ft 222 kts 103°
2026-05-06 14:11 45.68178 8.78557 4383 ft 242 kts 128°
2026-05-06 14:11 45.67125 8.80560 4930 ft 259 kts 128°
2026-05-06 14:11 45.66055 8.82643 5703 ft 266 kts 127°
2026-05-06 14:12 45.64971 8.84765 6580 ft 268 kts 128°
2026-05-06 14:12 45.63863 8.86938 7460 ft 271 kts 128°
2026-05-06 14:12 45.62752 8.89114 8276 ft 276 kts 128°
2026-05-06 14:12 45.61630 8.91304 9052 ft 280 kts 129°
2026-05-06 14:13 45.60477 8.93553 9810 ft 284 kts 129°
2026-05-06 14:13 45.59303 8.95843 10459 ft 293 kts 129°
2026-05-06 14:13 45.58054 8.98269 10861 ft 310 kts 129°
2026-05-06 14:13 45.56747 9.00805 11208 ft 329 kts 129°
2026-05-06 14:14 45.55362 9.03489 11513 ft 346 kts 129°
2026-05-06 14:14 45.53908 9.06312 11831 ft 362 kts 129°
2026-05-06 14:14 45.52398 9.09251 12410 ft 370 kts 129°
2026-05-06 14:14 45.50882 9.12195 13116 ft 373 kts 129°
2026-05-06 14:15 45.49347 9.15174 13802 ft 376 kts 129°
2026-05-06 14:15 45.47787 9.18197 14439 ft 379 kts 129°
2026-05-06 14:15 45.46230 9.21209 15064 ft 383 kts 130°
2026-05-06 14:15 45.44643 9.24276 15657 ft 387 kts 130°
2026-05-06 14:16 45.43055 9.27339 16236 ft 391 kts 130°
2026-05-06 14:16 45.41433 9.30462 16836 ft 395 kts 130°
2026-05-06 14:16 45.39781 9.33647 17420 ft 398 kts 130°
2026-05-06 14:16 45.38129 9.36819 17966 ft 402 kts 131°
2026-05-06 14:17 45.36477 9.39993 18509 ft 406 kts 131°
2026-05-06 14:17 45.34790 9.43232 19049 ft 410 kts 131°
2026-05-06 14:17 45.33078 9.46513 19575 ft 414 kts 131°
2026-05-06 14:17 45.31371 9.49779 20105 ft 417 kts 132°
2026-05-06 14:18 45.29642 9.53083 20607 ft 420 kts 132°
2026-05-06 14:18 45.27887 9.56433 21100 ft 424 kts 132°
2026-05-06 14:18 45.26138 9.59767 21575 ft 428 kts 132°
2026-05-06 14:18 45.24343 9.63189 22065 ft 431 kts 133°
2026-05-06 14:19 45.22498 9.66514 22514 ft 428 kts 140°
2026-05-06 14:19 45.20161 9.69019 22910 ft 416 kts 159°
2026-05-06 14:19 45.17493 9.70336 23386 ft 404 kts 175°
2026-05-06 14:19 45.14728 9.70516 23825 ft 397 kts 190°
2026-05-06 14:20 45.12039 9.69676 24264 ft 394 kts 199°
2026-05-06 14:20 45.09391 9.68599 24656 ft 397 kts 199°
2026-05-06 14:20 45.06736 9.67529 24888 ft 403 kts 199°
2026-05-06 14:20 45.04020 9.66438 25239 ft 405 kts 199°
2026-05-06 14:21 45.01310 9.65350 25613 ft 407 kts 199°
2026-05-06 14:21 44.98616 9.64270 25991 ft 407 kts 199°
2026-05-06 14:21 44.95861 9.63169 26323 ft 408 kts 199°
2026-05-06 14:21 44.93129 9.62076 26618 ft 410 kts 199°
2026-05-06 14:22 44.90384 9.60980 26920 ft 411 kts 199°
2026-05-06 14:22 44.87639 9.59886 27284 ft 411 kts 199°
2026-05-06 14:22 44.84902 9.58795 27713 ft 409 kts 199°
2026-05-06 14:22 44.82167 9.57705 28172 ft 406 kts 199°
2026-05-06 14:23 44.79460 9.56630 28656 ft 403 kts 200°
2026-05-06 14:23 44.76781 9.55565 29108 ft 400 kts 199°
2026-05-06 14:23 44.74103 9.54499 29532 ft 398 kts 200°
2026-05-06 14:23 44.71451 9.53447 29905 ft 397 kts 200°
2026-05-06 14:24 44.68829 9.52408 30294 ft 395 kts 200°
2026-05-06 14:24 44.66185 9.51361 30686 ft 394 kts 200°
2026-05-06 14:24 44.63557 9.50319 31053 ft 393 kts 200°
2026-05-06 14:24 44.60924 9.49278 31338 ft 393 kts 200°
2026-05-06 14:25 44.58298 9.48237 31664 ft 393 kts 200°
2026-05-06 14:25 44.55657 9.47197 32025 ft 391 kts 200°
2026-05-06 14:25 44.53063 9.46173 32305 ft 391 kts 200°
2026-05-06 14:25 44.50444 9.45140 32575 ft 391 kts 200°
2026-05-06 14:26 44.47829 9.44110 32846 ft 391 kts 200°
2026-05-06 14:26 44.45219 9.43081 33115 ft 391 kts 200°
2026-05-06 14:26 44.42609 9.42053 33417 ft 389 kts 200°
2026-05-06 14:26 44.40012 9.41038 33669 ft 389 kts 200°
2026-05-06 14:27 44.37414 9.40017 33878 ft 389 kts 200°
2026-05-06 14:27 44.34810 9.38996 34103 ft 389 kts 200°
2026-05-06 14:27 44.32212 9.37981 34342 ft 389 kts 200°
2026-05-06 14:27 44.29592 9.36953 34567 ft 388 kts 200°
2026-05-06 14:28 44.27002 9.35940 34740 ft 388 kts 200°
2026-05-06 14:28 44.24395 9.34924 34876 ft 388 kts 199°
2026-05-06 14:28 44.21811 9.33914 35011 ft 389 kts 200°
2026-05-06 14:28 44.19193 9.32894 35132 ft 390 kts 200°
2026-05-06 14:29 44.16584 9.31878 35249 ft 392 kts 200°
2026-05-06 14:29 44.13964 9.30822 35354 ft 392 kts 201°
2026-05-06 14:29 44.08785 9.28396 35545 ft 394 kts 202°
2026-05-06 14:30 44.06186 9.27178 35647 ft 395 kts 202°
2026-05-06 14:30 44.03606 9.25969 35743 ft 395 kts 202°
2026-05-06 14:30 44.01003 9.24748 35849 ft 396 kts 202°
2026-05-06 14:30 43.98380 9.23518 35959 ft 397 kts 202°
2026-05-06 14:31 43.93144 9.21065 36105 ft 399 kts 202°
2026-05-06 14:31 43.87883 9.18602 36286 ft 400 kts 202°
2026-05-06 14:32 43.82587 9.16126 36499 ft 401 kts 202°
2026-05-06 14:32 43.77321 9.13669 36652 ft 403 kts 202°
2026-05-06 14:33 43.74629 9.12414 36755 ft 403 kts 202°
2026-05-06 14:33 43.71984 9.11184 36858 ft 404 kts 202°
2026-05-06 14:33 43.66648 9.08703 36866 ft 406 kts 202°
2026-05-06 14:34 43.61298 9.06222 36868 ft 406 kts 202°
2026-05-06 14:34 43.55959 9.03746 36867 ft 406 kts 202°
2026-05-06 14:35 43.50643 9.01289 36892 ft 405 kts 202°
2026-05-06 14:35 43.45317 8.98832 36885 ft 405 kts 202°
2026-05-06 14:36 43.39876 8.96745 36882 ft 408 kts 197°
2026-05-06 14:36 43.34259 8.95401 36888 ft 412 kts 192°
2026-05-06 14:37 43.28529 8.94682 36890 ft 413 kts 190°
2026-05-06 14:37 43.22833 8.94006 36909 ft 413 kts 191°
2026-05-06 14:38 43.17129 8.93337 36903 ft 413 kts 191°
2026-05-06 14:38 43.11379 8.92668 36891 ft 413 kts 190°
2026-05-06 14:39 43.05660 8.92005 36895 ft 413 kts 190°
2026-05-06 14:39 42.99917 8.91344 36885 ft 413 kts 190°
2026-05-06 14:40 42.94201 8.90688 36887 ft 413 kts 190°
2026-05-06 14:40 42.88483 8.90031 36899 ft 413 kts 190°
2026-05-06 14:41 42.82754 8.89373 36901 ft 414 kts 190°
2026-05-06 14:41 42.77012 8.88720 36894 ft 414 kts 190°
2026-05-06 14:42 42.71298 8.88067 36896 ft 414 kts 190°
2026-05-06 14:42 42.65548 8.87411 36908 ft 414 kts 190°
2026-05-06 14:43 42.59814 8.86762 36865 ft 412 kts 191°
2026-05-06 14:43 42.56984 8.86442 36499 ft 409 kts 191°
2026-05-06 14:43 42.54166 8.86120 35918 ft 409 kts 190°
2026-05-06 14:44 42.51354 8.85799 35209 ft 411 kts 190°
2026-05-06 14:44 42.48499 8.85473 34464 ft 413 kts 190°
2026-05-06 14:44 42.45664 8.85153 33592 ft 414 kts 190°
2026-05-06 14:45 42.39899 8.84501 31693 ft 418 kts 190°
2026-05-06 14:45 42.37005 8.84174 30685 ft 421 kts 189°
2026-05-06 14:45 42.34103 8.83846 29668 ft 423 kts 190°
2026-05-06 14:45 42.31158 8.83514 28596 ft 426 kts 189°
2026-05-06 14:46 42.28197 8.83179 27459 ft 430 kts 189°
2026-05-06 14:46 42.25237 8.82845 26291 ft 434 kts 189°
2026-05-06 14:46 42.22236 8.82510 25589 ft 428 kts 189°
2026-05-06 14:46 42.19303 8.82188 24997 ft 421 kts 188°
2026-05-06 14:47 42.16409 8.81868 24408 ft 414 kts 188°
2026-05-06 14:47 42.13566 8.81550 23841 ft 408 kts 188°
2026-05-06 14:47 42.10788 8.81239 23271 ft 403 kts 188°
2026-05-06 14:47 42.08001 8.80927 22704 ft 399 kts 188°
2026-05-06 14:48 42.05271 8.80622 22139 ft 395 kts 188°
2026-05-06 14:48 42.02516 8.80312 21582 ft 391 kts 188°
2026-05-06 14:48 41.99850 8.80014 21037 ft 387 kts 188°
2026-05-06 14:48 41.97186 8.79715 20486 ft 383 kts 188°
2026-05-06 14:49 41.94526 8.79417 19934 ft 380 kts 188°
2026-05-06 14:49 41.91897 8.79123 19385 ft 377 kts 188°
2026-05-06 14:49 41.89322 8.78834 18856 ft 373 kts 187°
2026-05-06 14:49 41.86746 8.78549 18316 ft 371 kts 187°
2026-05-06 14:50 41.84164 8.78263 17780 ft 369 kts 187°
2026-05-06 14:50 41.81650 8.77986 17239 ft 367 kts 187°
2026-05-06 14:50 41.79100 8.78082 16674 ft 371 kts 173°
2026-05-06 14:50 41.76651 8.79305 16110 ft 379 kts 154°
2026-05-06 14:51 41.74605 8.81517 15536 ft 388 kts 136°
2026-05-06 14:51 41.72900 8.84324 15020 ft 389 kts 133°
2026-05-06 14:51 41.71229 8.87166 14459 ft 388 kts 133°
2026-05-06 14:51 41.69558 8.90002 13898 ft 387 kts 133°
2026-05-06 14:52 41.67904 8.92794 13350 ft 386 kts 133°
2026-05-06 14:52 41.66244 8.95585 12807 ft 385 kts 132°
2026-05-06 14:52 41.64572 8.98388 12266 ft 383 kts 132°
2026-05-06 14:52 41.62913 9.01163 11731 ft 381 kts 132°
2026-05-06 14:53 41.61283 9.03888 11240 ft 377 kts 132°
2026-05-06 14:53 41.59669 9.06583 10943 ft 367 kts 132°
2026-05-06 14:53 41.58091 9.09219 10757 ft 354 kts 132°
2026-05-06 14:53 41.56595 9.11712 10576 ft 341 kts 132°
2026-05-06 14:54 41.55141 9.14133 10407 ft 329 kts 133°
2026-05-06 14:54 41.53719 9.16506 10250 ft 318 kts 133°
2026-05-06 14:54 41.52377 9.18740 10109 ft 307 kts 133°
2026-05-06 14:54 41.51053 9.20943 9985 ft 295 kts 133°
2026-05-06 14:55 41.49801 9.23025 9728 ft 291 kts 133°
2026-05-06 14:55 41.48583 9.25225 9357 ft 294 kts 122°
2026-05-06 14:55 41.47835 9.27740 9017 ft 297 kts 105°
2026-05-06 14:55 41.47472 9.30436 8723 ft 296 kts 101°
2026-05-06 14:56 41.47181 9.33125 8381 ft 295 kts 100°
2026-05-06 14:56 41.46886 9.35803 8051 ft 292 kts 100°
2026-05-06 14:56 41.46723 9.38523 7689 ft 292 kts 83°
2026-05-06 14:56 41.47466 9.40977 7354 ft 290 kts 49°
2026-05-06 14:57 41.49043 9.42549 6961 ft 286 kts 18°
2026-05-06 14:57 41.50962 9.42905 6602 ft 279 kts 350°
2026-05-06 14:57 41.52811 9.42176 6266 ft 274 kts 337°
2026-05-06 14:57 41.54621 9.41441 5923 ft 273 kts 343°
2026-05-06 14:58 41.56455 9.40778 5589 ft 271 kts 341°
2026-05-06 14:58 41.58250 9.40012 5270 ft 268 kts 338°
2026-05-06 14:58 41.59945 9.39124 5216 ft 253 kts 334°
2026-05-06 14:58 41.61491 9.38154 5187 ft 239 kts 330°
2026-05-06 14:59 41.62915 9.37103 5135 ft 229 kts 327°
2026-05-06 14:59 41.64100 9.35794 4963 ft 221 kts 302°
2026-05-06 14:59 41.64574 9.33893 4648 ft 218 kts 268°
2026-05-06 14:59 41.64234 9.31932 4411 ft 215 kts 245°
2026-05-06 15:00 41.63475 9.30257 4176 ft 212 kts 234°
2026-05-06 15:00 41.62569 9.28718 3977 ft 207 kts 231°
2026-05-06 15:00 41.61639 9.27251 3680 ft 208 kts 230°
2026-05-06 15:00 41.60686 9.25783 3372 ft 208 kts 230°
2026-05-06 15:01 41.59757 9.24356 3137 ft 202 kts 230°
2026-05-06 15:01 41.58845 9.22950 2797 ft 201 kts 230°
2026-05-06 15:01 41.57934 9.21541 2465 ft 199 kts 230°
2026-05-06 15:01 41.57034 9.20148 2144 ft 195 kts 230°
2026-05-06 15:02 41.56180 9.18827 1842 ft 183 kts 229°
2026-05-06 15:02 41.55384 9.17595 1596 ft 169 kts 229°
2026-05-06 15:02 41.54648 9.16456 1343 ft 154 kts 230°
2026-05-06 15:02 41.53984 9.15428 1112 ft 141 kts 230°
2026-05-06 15:03 41.53368 9.14476 899 ft 130 kts 230°
2026-05-06 15:03 41.52779 9.13563 716 ft 129 kts 230°
2026-05-06 15:03 41.52198 9.12664 524 ft 127 kts 230°
2026-05-06 15:03 41.51623 9.11768 328 ft 126 kts 229°
2026-05-06 15:04 41.51050 9.10896 148 ft 125 kts 227°
2026-05-06 15:04 41.50483 9.10072 76 ft 100 kts 227°
2026-05-06 15:04 41.50217 9.09707 72 ft 12 kts 191°
2026-05-06 15:04 41.50146 9.09754 72 ft 11 kts 137°
2026-05-06 15:05 41.50086 9.09814 72 ft 9 kts 167°
2026-05-06 15:05 41.50029 9.09771 71 ft 9 kts 217°
2026-05-06 15:05 41.49975 9.09781 72 ft 2 kts 141°
2026-05-06 15:05 41.49972 9.09784 72 ft 0 kts 139°
2026-05-06 15:08 41.49968 9.09788 72 ft 1 kts 140°
2026-05-06 15:08 41.49966 9.09791 72 ft 0 kts 140°